| time (UTC) | temp F | wind direction | speed knots | gust knots | rain 1hr in | rain 24hr in | rain mn in | humidity % | barometer mb |
| 20260510000034 | 59 | 333 | 2.6 | 4.3 | 0.00 | 0.00 | 0.00 | 50 | 1024.3 |
| 20260509234539 | 57 | 217 | 1.7 | 3.5 | 0.00 | 0.00 | 0.00 | 52 | 1024.2 |
| 20260509233030 | 56 | 340 | 1.7 | 3.5 | 0.00 | 0.00 | 0.00 | 53 | 1024.0 |
| 20260509231528 | 55 | 323 | 2.6 | 4.3 | 0.00 | 0.00 | 0.00 | 53 | 1023.6 |
| 20260509230028 | 56 | 252 | 2.6 | 6.1 | 0.00 | 0.00 | 0.00 | 52 | 1023.5 |
| 20260509224540 | 56 | 216 | 0.9 | 5.2 | 0.00 | 0.00 | 0.00 | 51 | 1023.6 |
| 20260509223029 | 57 | 219 | 2.6 | 4.3 | 0.00 | 0.00 | 0.00 | 50 | 1023.5 |
| 20260509221531 | 56 | 232 | 1.7 | 4.3 | 0.00 | 0.00 | 0.00 | 51 | 1023.6 |
| 20260509220030 | 55 | 200 | 0.9 | 2.6 | 0.00 | 0.00 | 0.00 | 52 | 1023.5 |
| 20260509214531 | 55 | 0 | 0.0 | 0.0 | 0.00 | 0.00 | 0.00 | 51 | 1023.5 |
| 20260509213030 | 55 | 194 | 0.0 | 1.7 | 0.00 | 0.00 | 0.00 | 51 | 1023.4 |
| 20260509211529 | 56 | 0 | 0.0 | 1.7 | 0.00 | 0.00 | 0.00 | 50 | 1023.3 |
| 20260509210030 | 56 | 215 | 0.9 | 2.6 | 0.00 | 0.00 | 0.00 | 50 | 1023.1 |
| 20260509204529 | 55 | 186 | 0.9 | 1.7 | 0.00 | 0.00 | 0.00 | 52 | 1022.9 |
| 20260509203034 | 54 | 186 | 0.0 | 1.7 | 0.00 | 0.00 | 0.00 | 52 | 1022.8 |
| 20260509201529 | 54 | 0 | 0.0 | 0.0 | 0.00 | 0.00 | 0.00 | 51 | 1022.9 |
| 20260509200028 | 56 | 0 | 0.0 | 1.7 | 0.00 | 0.00 | 0.00 | 49 | 1022.9 |
| 20260509194529 | 56 | 186 | 0.9 | 3.5 | 0.00 | 0.00 | 0.00 | 48 | 1022.8 |
| 20260509193029 | 56 | 183 | 0.9 | 2.6 | 0.00 | 0.00 | 0.00 | 49 | 1022.7 |
| 20260509191532 | 56 | 175 | 1.7 | 4.3 | 0.00 | 0.00 | 0.00 | 49 | 1022.7 |
| 20260509190030 | 55 | 211 | 2.6 | 3.5 | 0.00 | 0.00 | 0.00 | 49 | 1022.8 |
| 20260509184542 | 56 | 329 | 0.9 | 3.5 | 0.00 | 0.00 | 0.00 | 48 | 1023.0 |
| 20260509183027 | 57 | 330 | 1.7 | 3.5 | 0.00 | 0.00 | 0.00 | 47 | 1023.0 |
| 20260509181529 | 57 | 318 | 1.7 | 5.2 | 0.00 | 0.00 | 0.00 | 47 | 1022.9 |
| 20260509180039 | 57 | 316 | 1.7 | 5.2 | 0.00 | 0.00 | 0.00 | 46 | 1023.1 |
| 20260509174530 | 57 | 315 | 1.7 | 3.5 | 0.00 | 0.00 | 0.00 | 46 | 1023.2 |
| 20260509173037 | 57 | 190 | 0.9 | 4.3 | 0.00 | 0.00 | 0.00 | 46 | 1023.2 |
| 20260509171528 | 56 | 327 | 1.7 | 3.5 | 0.00 | 0.00 | 0.00 | 48 | 1023.1 |
| 20260509170045 | 52 | 171 | 0.0 | 1.7 | 0.00 | 0.00 | 0.00 | 52 | 1023.2 |
| 20260509164531 | 52 | 0 | 0.0 | 0.0 | 0.00 | 0.00 | 0.00 | 52 | 1023.1 |
| 20260509163027 | 52 | 0 | 0.0 | 0.0 | 0.00 | 0.00 | 0.00 | 51 | 1023.0 |
| 20260509161527 | 53 | 0 | 0.0 | 0.0 | 0.00 | 0.00 | 0.00 | 49 | 1023.0 |
| 20260509160028 | 55 | 0 | 0.0 | 0.0 | 0.00 | 0.00 | 0.00 | 47 | 1023.0 |
| 20260509154531 | 56 | 0 | 0.0 | 0.9 | 0.00 | 0.00 | 0.00 | 45 | 1023.1 |
| 20260509153032 | 58 | 0 | 0.0 | 1.7 | 0.00 | 0.00 | 0.00 | 43 | 1023.4 |
| 20260509151528 | 58 | 172 | 0.9 | 2.6 | 0.00 | 0.00 | 0.00 | 43 | 1023.5 |
| 20260509150030 | 59 | 172 | 0.9 | 1.7 | 0.00 | 0.00 | 0.00 | 43 | 1023.5 |
| 20260509144532 | 58 | 171 | 0.9 | 3.5 | 0.00 | 0.00 | 0.00 | 43 | 1023.6 |
| 20260509143030 | 57 | 0 | 0.0 | 0.0 | 0.00 | 0.00 | 0.00 | 44 | 1023.8 |
| 20260509141539 | 59 | 0 | 0.0 | 0.9 | 0.00 | 0.00 | 0.00 | 42 | 1023.9 |
| 20260509140028 | 60 | 0 | 0.0 | 0.9 | 0.00 | 0.00 | 0.00 | 40 | 1023.9 |
| 20260509134532 | 62 | 171 | 0.9 | 3.5 | 0.00 | 0.00 | 0.00 | 39 | 1023.8 |
| 20260509133428 | 61 | 171 | 0.9 | 3.5 | 0.00 | 0.00 | 0.00 | 39 | 1023.8 |
| 20260509131608 | 62 | 171 | 0.0 | 3.5 | 0.00 | 0.00 | 0.00 | 39 | 1023.7 |
| 20260509131538 | 62 | 171 | 0.0 | 3.5 | 0.00 | 0.00 | 0.00 | 39 | 1023.7 |
| 20260509130041 | 62 | 171 | 0.0 | 1.7 | 0.00 | 0.00 | 0.00 | 39 | 1023.5 |
| 20260509124530 | 62 | 171 | 0.0 | 0.9 | 0.00 | 0.00 | 0.00 | 38 | 1023.1 |
| 20260509123032 | 63 | 0 | 0.0 | 1.7 | 0.00 | 0.00 | 0.00 | 38 | 1023.1 |
| 20260509121531 | 64 | 171 | 0.9 | 2.6 | 0.00 | 0.00 | 0.00 | 37 | 1023.1 |
| 20260509120028 | 65 | 172 | 0.9 | 3.5 | 0.00 | 0.00 | 0.00 | 36 | 1022.9 |
| 20260509114534 | 67 | 220 | 1.7 | 3.5 | 0.00 | 0.00 | 0.00 | 35 | 1022.9 |
| 20260509113030 | 67 | 244 | 2.6 | 3.5 | 0.00 | 0.00 | 0.00 | 34 | 1022.8 |
| 20260509111530 | 68 | 211 | 1.7 | 2.6 | 0.00 | 0.00 | 0.00 | 34 | 1022.8 |
| 20260509110028 | 68 | 211 | 0.9 | 2.6 | 0.00 | 0.00 | 0.00 | 35 | 1022.5 |
| 20260509104528 | 67 | 194 | 0.9 | 1.7 | 0.00 | 0.00 | 0.00 | 36 | 1022.5 |
| 20260509103028 | 66 | 0 | 0.0 | 0.0 | 0.00 | 0.00 | 0.00 | 41 | 1022.5 |
| 20260509101533 | 69 | 0 | 0.0 | 0.0 | 0.00 | 0.00 | 0.00 | 50 | 1022.4 |
| 20260509100033 | 71 | 0 | 0.0 | 0.0 | 0.00 | 0.00 | 0.00 | 44 | 1022.4 |
| 20260509094533 | 74 | 0 | 0.0 | 0.0 | 0.00 | 0.00 | 0.00 | 30 | 1022.3 |
| 20260509093030 | 75 | 167 | 1.7 | 3.5 | 0.00 | 0.00 | 0.00 | 29 | 1022.1 |
| 20260509091530 | 76 | 165 | 1.7 | 4.3 | 0.00 | 0.00 | 0.00 | 28 | 1022.1 |
| 20260509090040 | 77 | 161 | 1.7 | 4.3 | 0.00 | 0.00 | 0.00 | 28 | 1022.1 |
| 20260509084530 | 78 | 332 | 2.6 | 6.1 | 0.00 | 0.00 | 0.00 | 28 | 1022.0 |
| 20260509083030 | 78 | 179 | 2.6 | 7.8 | 0.00 | 0.00 | 0.00 | 28 | 1022.1 |
| 20260509081546 | 78 | 163 | 1.7 | 5.2 | 0.00 | 0.00 | 0.00 | 27 | 1021.9 |
| 20260509080311 | 79 | 189 | 1.7 | 5.2 | 0.00 | 0.00 | 0.00 | 28 | 1021.8 |
| 20260509070040 | 81 | 309 | 1.7 | 8.7 | 0.00 | 0.00 | 0.00 | 26 | 1021.6 |
| 20260509064533 | 82 | 155 | 2.6 | 8.7 | 0.00 | 0.00 | 0.00 | 26 | 1021.6 |
| 20260509063052 | 82 | 53 | 4.3 | 7.8 | 0.00 | 0.00 | 0.00 | 25 | 1021.4 |
| 20260509061545 | 83 | 49 | 5.2 | 10.4 | 0.00 | 0.00 | 0.00 | 25 | 1021.3 |
| 20260509060047 | 82 | 225 | 4.3 | 9.6 | 0.00 | 0.00 | 0.00 | 25 | 1021.4 |
| 20260509054530 | 83 | 315 | 3.5 | 7.0 | 0.00 | 0.00 | 0.00 | 25 | 1021.5 |
| 20260509053032 | 82 | 205 | 1.7 | 10.4 | 0.00 | 0.00 | 0.00 | 26 | 1021.6 |
| 20260509051530 | 83 | 331 | 3.5 | 5.2 | 0.00 | 0.00 | 0.00 | 26 | 1021.6 |
| 20260509050032 | 82 | 317 | 2.6 | 7.8 | 0.00 | 0.00 | 0.00 | 26 | 1021.8 |
| 20260509044530 | 82 | 323 | 2.6 | 7.8 | 0.00 | 0.00 | 0.00 | 27 | 1022.0 |
| 20260509043033 | 81 | 184 | 2.6 | 7.8 | 0.00 | 0.00 | 0.00 | 28 | 1022.1 |
| 20260509041528 | 80 | 321 | 5.2 | 9.6 | 0.00 | 0.00 | 0.00 | 29 | 1022.5 |
| 20260509040032 | 79 | 345 | 5.2 | 11.3 | 0.00 | 0.00 | 0.00 | 30 | 1022.7 |
| 20260509034530 | 78 | 323 | 6.1 | 13.0 | 0.00 | 0.00 | 0.00 | 30 | 1023.0 |
| 20260509033028 | 78 | 201 | 4.3 | 10.4 | 0.00 | 0.00 | 0.00 | 31 | 1023.3 |
| 20260509031534 | 76 | 311 | 6.1 | 12.2 | 0.00 | 0.00 | 0.00 | 32 | 1023.7 |
| 20260509030029 | 75 | 316 | 6.1 | 11.3 | 0.00 | 0.00 | 0.00 | 33 | 1023.9 |
| 20260509024530 | 74 | 312 | 6.1 | 12.2 | 0.00 | 0.00 | 0.00 | 34 | 1024.1 |
| 20260509023028 | 73 | 306 | 4.3 | 10.4 | 0.00 | 0.00 | 0.00 | 35 | 1024.3 |
| 20260509021528 | 72 | 340 | 6.1 | 12.2 | 0.00 | 0.00 | 0.00 | 36 | 1024.4 |
| 20260509020046 | 71 | 300 | 6.1 | 13.9 | 0.00 | 0.00 | 0.00 | 37 | 1024.7 |
| 20260509014542 | 70 | 307 | 7.0 | 15.6 | 0.00 | 0.00 | 0.00 | 38 | 1024.7 |
| 20260509013036 | 69 | 321 | 7.8 | 12.2 | 0.00 | 0.00 | 0.00 | 39 | 1024.8 |
| 20260509011530 | 68 | 289 | 4.3 | 10.4 | 0.00 | 0.00 | 0.00 | 41 | 1025.0 |
| 20260509010027 | 67 | 347 | 5.2 | 13.0 | 0.00 | 0.00 | 0.00 | 42 | 1025.1 |
| 20260509004528 | 65 | 333 | 7.0 | 15.6 | 0.00 | 0.00 | 0.00 | 44 | 1025.1 |
| 20260509003039 | 64 | 324 | 6.1 | 11.3 | 0.00 | 0.00 | 0.00 | 47 | 1025.2 |
| 20260509001528 | 62 | 355 | 6.1 | 13.9 | 0.00 | 0.00 | 0.00 | 48 | 1025.2 |